This demonstration page uses our WeatherBlox Daily Observations layout. Learn more.

Left ArrowRight Arrow

Hourly Observations for December 14, 2019

Temp ( °F °C ) Dew Point ( °F °C ) Humidity (%) Winds ( mph kmh ) Pressure ( in mb ) Visibility ( mi km ) Precip ( " mm )
12:51 am 00:51 Clear 42 5.6 39 3.9 89 89 SE 6 9 29.95 1014 10 16 N/A
1:51 am 01:51 Clear 43 6.1 39 3.9 86 86 ENE 3 6 29.93 1014 10 16 N/A
2:51 am 02:51 Clear 42 5.6 39 3.9 89 89 E 5 7 29.93 1013 10 16 N/A
3:51 am 03:51 Clear 43 6.1 39 3.9 86 86 E 6 9 29.90 1013 10 16 N/A
4:51 am 04:51 Clear 42 5.6 38 3.3 85 85 SSE 5 7 29.90 1012 10 16 N/A
5:51 am 05:51 Clear 40 4.4 37 2.8 89 89 SE 3 6 29.92 1013 10 16 N/A
6:51 am 06:51 Clear 39 3.9 37 2.8 93 93 ENE 7 11 29.93 1013 10 16 N/A
7:51 am 07:51 Sunny 41 5 38 3.3 89 89 ESE 6 9 29.92 1013 10 16 N/A
8:51 am 08:51 Sunny 47 8.3 39 3.9 74 74 SE 3 6 29.92 1013 10 16 N/A
9:51 am 09:51 Sunny 53 11.7 41 5 64 64 N N/A 29.92 1013 10 16 N/A
10:51 am 10:51 Sunny 56 13.3 42 5.6 60 60 S 3 6 29.90 1012 10 16 N/A
11:51 am 11:51 Sunny 60 15.6 40 4.4 47 47 VRB 3 6 29.86 1011 10 16 N/A
12:51 pm 12:51 Sunny 62 16.7 41 5 46 46 W 5 7 29.82 1010 10 16 N/A
1:51 pm 13:51 Sunny 65 18.3 41 5 42 42 VRB 6 9 29.78 1009 10 16 N/A
2:51 pm 14:51 Sunny 65 18.3 42 5.6 43 43 WSW 6 9 29.77 1008 10 16 N/A
3:51 pm 15:51 Sunny 66 18.9 43 6.1 43 43 WNW 7 11 29.75 1008 10 16 N/A
4:51 pm 16:51 Sunny 65 18.3 42 5.6 43 43 W 10 17 29.75 1008 10 16 N/A
5:51 pm 17:51 Clear 63 17.2 42 5.6 47 47 W 8 13 29.76 1008 10 16 N/A
6:51 pm 18:51 Clear 61 16.1 43 6.1 52 52 W 10 17 29.76 1008 10 16 N/A
7:51 pm 19:51 Clear 57 13.9 43 6.1 60 60 W 7 11 29.78 1008 10 16 N/A
8:51 pm 20:51 Clear 54 12.2 43 6.1 67 67 S 3 6 29.76 1008 10 16 N/A
9:51 pm 21:51 Clear 53 11.7 43 6.1 69 69 SE 8 13 29.76 1008 10 16 N/A
10:51 pm 22:51 Clear 51 10.6 43 6.1 74 74 ESE 5 7 29.75 1008 10 16 N/A
11:51 pm 23:51 Clear 47 8.3 43 6.1 86 86 NE 3 6 29.74 1007 10 16 N/A

Powered by AerisWeather